| time (UTC) | temp C | wind direction | speed KPH | gust KPH | rain 1hr cm | rain 24hr cm | rain mn cm | humidity % | barometer mb |
| 20260504045620 | 3 | 311 | 0.0 | 3.2 | 0.00 | 0.00 | 0.00 | 1004.1 | |
| 20260504044121 | 3 | 249 | 1.6 | 4.8 | 0.00 | 0.00 | 0.00 | 1004.1 | |
| 20260504042620 | 3 | 260 | 3.2 | 8.0 | 0.00 | 0.00 | 0.00 | 1003.8 | |
| 20260504041620 | 3 | 205 | 0.0 | 8.0 | 0.00 | 0.00 | 0.00 | 1003.8 | |
| 20260504040120 | 3 | 180 | 1.6 | 8.0 | 0.00 | 0.00 | 0.00 | 1003.4 | |
| 20260504035619 | 3 | 290 | 3.2 | 8.0 | 0.00 | 0.00 | 0.00 | 1003.4 | |
| 20260504032619 | 4 | 15 | 0.0 | 11.3 | 0.00 | 0.00 | 0.00 | 1003.1 | |
| 20260504032119 | 4 | 305 | 0.0 | 12.9 | 0.00 | 0.00 | 0.00 | 1003.1 | |
| 20260504025621 | 5 | 238 | 1.6 | 6.4 | 0.00 | 0.00 | 0.00 | 1003.1 | |
| 20260504025121 | 5 | 229 | 0.0 | 4.8 | 0.00 | 0.00 | 0.00 | 1002.8 | |
| 20260504020620 | 4 | 335 | 0.0 | 4.8 | 0.00 | 0.00 | 0.00 | 1002.8 | |
| 20260504020121 | 4 | 318 | 0.0 | 4.8 | 0.00 | 0.00 | 0.00 | 1002.8 | |
| 20260504015620 | 4 | 203 | 0.0 | 4.8 | 0.00 | 0.00 | 0.00 | 1002.4 | |
| 20260504014620 | 4 | 149 | 0.0 | 0.0 | 0.00 | 0.00 | 0.00 | 1002.4 | |
| 20260504013620 | 4 | 149 | 0.0 | 6.4 | 0.00 | 0.00 | 0.00 | 1002.4 | |
| 20260504004619 | 4 | 214 | 4.8 | 12.9 | 0.00 | 0.00 | 0.00 | 1001.7 | |
| 20260504001619 | 4 | 235 | 1.6 | 6.4 | 0.00 | 0.00 | 0.00 | 1001.4 | |
| 20260504001119 | 4 | 257 | 1.6 | 4.8 | 0.00 | 0.00 | 0.00 | 1001.1 | |
| 20260504000120 | 4 | 44 | 1.6 | 6.4 | 0.00 | 0.00 | 0.00 | 1001.1 | |
| 20260503235619 | 4 | 163 | 3.2 | 8.0 | 0.00 | 0.00 | 0.00 | 1001.1 | |
| 20260503234621 | 4 | 321 | 4.8 | 9.7 | 0.00 | 0.00 | 0.00 | 1000.7 | |
| 20260503234121 | 4 | 300 | 1.6 | 11.3 | 0.00 | 0.00 | 0.00 | 1000.7 | |
| 20260503233621 | 4 | 335 | 1.6 | 11.3 | 0.00 | 0.00 | 0.00 | 1000.7 | |
| 20260503233120 | 4 | 308 | 1.6 | 14.5 | 0.00 | 0.00 | 0.00 | 1000.7 | |
| 20260503232619 | 4 | 139 | 4.8 | 14.5 | 0.00 | 0.00 | 0.00 | 1000.7 |